Time,TemperatureF,DewpointF,PressureIn,WindDirection,WindDirectionDegrees,WindSpeedMPH,WindSpeedGustMPH,Humidity,HourlyPrecipIn,Conditions,Clouds,dailyrainin,SoftwareType,DateUTC
2013-02-12 00:01:00,39.0,34.0,-100.00,NW,310,3.0,-999.0,82,0.00,,,-99.99,,2013-02-12 08:01:00,
2013-02-12 00:11:00,39.0,34.0,-100.00,NW,310,3.0,-999.0,82,0.00,,,-99.99,,2013-02-12 08:11:00,
2013-02-12 00:21:00,39.0,34.0,-100.00,NW,310,3.0,-999.0,82,0.00,,,-99.99,,2013-02-12 08:21:00,
2013-02-12 00:31:00,39.0,34.0,-100.00,NW,310,3.0,-999.0,82,0.00,,,-99.99,,2013-02-12 08:31:00,
2013-02-12 00:41:00,39.0,34.0,-100.00,NW,310,3.0,-999.0,82,0.00,,,-99.99,,2013-02-12 08:41:00,
2013-02-12 01:01:00,40.0,36.0,-100.00,WSW,250,2.0,-999.0,84,0.00,,,-99.99,,2013-02-12 09:01:00,
2013-02-12 01:11:00,40.0,36.0,-100.00,WSW,250,2.0,-999.0,84,0.00,,,-99.99,,2013-02-12 09:11:00,
2013-02-12 01:21:00,40.0,36.0,-100.00,WSW,250,2.0,-999.0,84,0.00,,,-99.99,,2013-02-12 09:21:00,
2013-02-12 01:31:00,40.0,36.0,-100.00,WSW,250,2.0,-999.0,84,0.00,,,-99.99,,2013-02-12 09:31:00,
2013-02-12 01:41:00,40.0,36.0,-100.00,WSW,250,2.0,-999.0,84,0.00,,,-99.99,,2013-02-12 09:41:00,
2013-02-12 02:01:00,43.0,41.0,-100.00,South,184,1.0,-999.0,94,0.00,,,-99.99,,2013-02-12 10:01:00,
2013-02-12 02:11:00,43.0,41.0,-100.00,South,184,1.0,-999.0,94,0.00,,,-99.99,,2013-02-12 10:11:00,
2013-02-12 02:21:00,43.0,41.0,-100.00,South,184,1.0,-999.0,94,0.00,,,-99.99,,2013-02-12 10:21:00,
2013-02-12 02:31:00,43.0,41.0,-100.00,South,184,1.0,-999.0,94,0.00,,,-99.99,,2013-02-12 10:31:00,
2013-02-12 02:43:00,43.0,41.0,-100.00,South,184,1.0,-999.0,94,0.00,,,-99.99,,2013-02-12 10:43:00,
2013-02-12 03:01:00,43.0,41.0,-100.00,ENE,72,5.0,-999.0,94,0.00,,,-99.99,,2013-02-12 11:01:00,
2013-02-12 03:11:00,43.0,41.0,-100.00,ENE,72,5.0,-999.0,94,0.00,,,-99.99,,2013-02-12 11:11:00,
2013-02-12 03:21:00,43.0,41.0,-100.00,ENE,72,5.0,-999.0,94,0.00,,,-99.99,,2013-02-12 11:21:00,
2013-02-12 03:31:00,43.0,41.0,-100.00,ENE,72,5.0,-999.0,94,0.00,,,-99.99,,2013-02-12 11:31:00,
2013-02-12 03:41:00,43.0,41.0,-100.00,ENE,72,5.0,-999.0,94,0.00,,,-99.99,,2013-02-12 11:41:00,
2013-02-12 04:01:00,39.0,37.0,-100.00,ENE,68,9.0,-999.0,92,0.00,,,-99.99,,2013-02-12 12:01:00,
2013-02-12 04:11:00,39.0,37.0,-100.00,ENE,68,9.0,-999.0,92,0.00,,,-99.99,,2013-02-12 12:11:00,
2013-02-12 04:21:00,39.0,37.0,-100.00,ENE,68,9.0,-999.0,92,0.00,,,-99.99,,2013-02-12 12:21:00,
2013-02-12 04:32:00,39.0,37.0,-100.00,ENE,68,9.0,-999.0,92,0.00,,,-99.99,,2013-02-12 12:32:00,
2013-02-12 04:41:00,39.0,37.0,-100.00,ENE,68,9.0,-999.0,92,0.00,,,-99.99,,2013-02-12 12:41:00,
2013-02-12 05:01:00,39.0,34.0,-100.00,ENE,74,7.0,-999.0,84,0.00,,,-99.99,,2013-02-12 13:01:00,
2013-02-12 05:11:00,39.0,34.0,-100.00,ENE,74,7.0,-999.0,84,0.00,,,-99.99,,2013-02-12 13:11:00,
2013-02-12 05:22:00,39.0,34.0,-100.00,ENE,74,7.0,-999.0,84,0.00,,,-99.99,,2013-02-12 13:22:00,
2013-02-12 05:31:00,39.0,34.0,-100.00,ENE,74,7.0,-999.0,84,0.00,,,-99.99,,2013-02-12 13:31:00,
2013-02-12 05:41:00,39.0,34.0,-100.00,ENE,74,7.0,-999.0,84,0.00,,,-99.99,,2013-02-12 13:41:00,
2013-02-12 06:01:00,36.0,34.0,-100.00,North,7,2.0,-999.0,90,0.00,,,-99.99,,2013-02-12 14:01:00,
2013-02-12 06:11:00,36.0,34.0,-100.00,North,7,2.0,-999.0,90,0.00,,,-99.99,,2013-02-12 14:11:00,
2013-02-12 06:21:00,36.0,34.0,-100.00,North,7,2.0,-999.0,90,0.00,,,-99.99,,2013-02-12 14:21:00,
2013-02-12 06:31:00,36.0,34.0,-100.00,North,7,2.0,-999.0,90,0.00,,,-99.99,,2013-02-12 14:31:00,
2013-02-12 06:41:00,36.0,34.0,-100.00,North,7,2.0,-999.0,90,0.00,,,-99.99,,2013-02-12 14:41:00,
2013-02-12 07:01:00,36.0,33.0,-100.00,NNE,30,4.0,-999.0,89,0.00,,,-99.99,,2013-02-12 15:01:00,
2013-02-12 07:11:00,36.0,33.0,-100.00,NNE,30,4.0,-999.0,89,0.00,,,-99.99,,2013-02-12 15:11:00,
2013-02-12 07:21:00,36.0,33.0,-100.00,NNE,30,4.0,-999.0,89,0.00,,,-99.99,,2013-02-12 15:21:00,
2013-02-12 07:32:00,36.0,33.0,-100.00,NNE,30,4.0,-999.0,89,0.00,,,-99.99,,2013-02-12 15:32:00,
2013-02-12 07:41:00,36.0,33.0,-100.00,NNE,30,4.0,-999.0,89,0.00,,,-99.99,,2013-02-12 15:41:00,
2013-02-12 08:01:00,38.0,34.0,-100.00,ENE,59,1.0,-999.0,85,0.00,,,-99.99,,2013-02-12 16:01:00,
2013-02-12 08:11:00,38.0,34.0,-100.00,ENE,59,1.0,-999.0,85,0.00,,,-99.99,,2013-02-12 16:11:00,
2013-02-12 08:22:00,38.0,34.0,-100.00,ENE,59,1.0,-999.0,85,0.00,,,-99.99,,2013-02-12 16:22:00,
2013-02-12 08:31:00,38.0,34.0,-100.00,ENE,59,1.0,-999.0,85,0.00,,,-99.99,,2013-02-12 16:31:00,
2013-02-12 08:41:00,38.0,34.0,-100.00,ENE,59,1.0,-999.0,85,0.00,,,-99.99,,2013-02-12 16:41:00,
2013-02-12 09:01:00,42.0,37.0,-100.00,ENE,68,3.0,-999.0,82,0.00,,,-99.99,,2013-02-12 17:01:00,
2013-02-12 09:11:00,42.0,37.0,-100.00,ENE,68,3.0,-999.0,82,0.00,,,-99.99,,2013-02-12 17:11:00,
2013-02-12 09:21:00,42.0,37.0,-100.00,ENE,68,3.0,-999.0,82,0.00,,,-99.99,,2013-02-12 17:21:00,
2013-02-12 09:31:00,42.0,37.0,-100.00,ENE,68,3.0,-999.0,82,0.00,,,-99.99,,2013-02-12 17:31:00,
2013-02-12 09:41:00,42.0,37.0,-100.00,ENE,68,3.0,-999.0,82,0.00,,,-99.99,,2013-02-12 17:41:00,
2013-02-12 10:01:00,46.0,39.0,-100.00,East,82,5.0,-999.0,76,0.00,,,-99.99,,2013-02-12 18:01:00,
2013-02-12 10:11:00,46.0,39.0,-100.00,East,82,5.0,-999.0,76,0.00,,,-99.99,,2013-02-12 18:11:00,
2013-02-12 10:22:00,46.0,39.0,-100.00,East,82,5.0,-999.0,76,0.00,,,-99.99,,2013-02-12 18:22:00,
2013-02-12 10:31:00,46.0,39.0,-100.00,East,82,5.0,-999.0,76,0.00,,,-99.99,,2013-02-12 18:31:00,
2013-02-12 10:41:00,46.0,39.0,-100.00,East,82,5.0,-999.0,76,0.00,,,-99.99,,2013-02-12 18:41:00,
2013-02-12 11:02:00,50.0,39.0,-100.00,ENE,63,8.0,-999.0,66,0.00,,,-99.99,,2013-02-12 19:02:00,
2013-02-12 11:11:00,50.0,39.0,-100.00,ENE,63,8.0,-999.0,66,0.00,,,-99.99,,2013-02-12 19:11:00,
2013-02-12 11:21:00,50.0,39.0,-100.00,ENE,63,8.0,-999.0,66,0.00,,,-99.99,,2013-02-12 19:21:00,
2013-02-12 11:31:00,50.0,39.0,-100.00,ENE,63,8.0,-999.0,66,0.00,,,-99.99,,2013-02-12 19:31:00,
2013-02-12 11:41:00,50.0,39.0,-100.00,ENE,63,8.0,-999.0,66,0.00,,,-99.99,,2013-02-12 19:41:00,
2013-02-12 12:01:00,53.0,39.0,-100.00,East,88,7.0,-999.0,59,0.00,,,-99.99,,2013-02-12 20:01:00,
2013-02-12 12:11:00,53.0,39.0,-100.00,East,88,7.0,-999.0,59,0.00,,,-99.99,,2013-02-12 20:11:00,
2013-02-12 12:21:00,53.0,39.0,-100.00,East,88,7.0,-999.0,59,0.00,,,-99.99,,2013-02-12 20:21:00,
2013-02-12 12:31:00,53.0,39.0,-100.00,East,88,7.0,-999.0,59,0.00,,,-99.99,,2013-02-12 20:31:00,
2013-02-12 12:41:00,53.0,39.0,-100.00,East,88,7.0,-999.0,59,0.00,,,-99.99,,2013-02-12 20:41:00,
2013-02-12 13:01:00,55.0,40.0,-100.00,ESE,108,5.0,-999.0,56,0.00,,,-99.99,,2013-02-12 21:01:00,
2013-02-12 13:11:00,55.0,40.0,-100.00,ESE,108,5.0,-999.0,56,0.00,,,-99.99,,2013-02-12 21:11:00,
2013-02-12 13:21:00,55.0,40.0,-100.00,ESE,108,5.0,-999.0,56,0.00,,,-99.99,,2013-02-12 21:21:00,
2013-02-12 13:31:00,55.0,40.0,-100.00,ESE,108,5.0,-999.0,56,0.00,,,-99.99,,2013-02-12 21:31:00,
2013-02-12 13:41:00,55.0,40.0,-100.00,ESE,108,5.0,-999.0,56,0.00,,,-99.99,,2013-02-12 21:41:00,
2013-02-12 14:01:00,57.0,39.0,-100.00,ENE,75,6.0,-999.0,51,0.00,,,-99.99,,2013-02-12 22:01:00,
2013-02-12 14:12:00,57.0,39.0,-100.00,ENE,75,6.0,-999.0,51,0.00,,,-99.99,,2013-02-12 22:12:00,
2013-02-12 14:21:00,57.0,39.0,-100.00,ENE,75,6.0,-999.0,51,0.00,,,-99.99,,2013-02-12 22:21:00,
2013-02-12 14:31:00,57.0,39.0,-100.00,ENE,75,6.0,-999.0,51,0.00,,,-99.99,,2013-02-12 22:31:00,
2013-02-12 14:41:00,57.0,39.0,-100.00,ENE,75,6.0,-999.0,51,0.00,,,-99.99,,2013-02-12 22:41:00,
2013-02-12 15:01:00,58.0,38.0,-100.00,East,91,5.0,-999.0,47,0.00,,,-99.99,,2013-02-12 23:01:00,
2013-02-12 15:11:00,58.0,38.0,-100.00,East,91,5.0,-999.0,47,0.00,,,-99.99,,2013-02-12 23:11:00,
2013-02-12 15:21:00,58.0,38.0,-100.00,East,91,5.0,-999.0,47,0.00,,,-99.99,,2013-02-12 23:21:00,
2013-02-12 15:31:00,58.0,38.0,-100.00,East,91,5.0,-999.0,47,0.00,,,-99.99,,2013-02-12 23:31:00,
2013-02-12 15:41:00,58.0,38.0,-100.00,East,91,5.0,-999.0,47,0.00,,,-99.99,,2013-02-12 23:41:00,
2013-02-12 16:02:00,59.0,38.0,-100.00,ESE,114,2.0,-999.0,45,0.00,,,-99.99,,2013-02-13 00:02:00,
2013-02-12 16:11:00,59.0,38.0,-100.00,ESE,114,2.0,-999.0,45,0.00,,,-99.99,,2013-02-13 00:11:00,
2013-02-12 16:21:00,59.0,38.0,-100.00,ESE,114,2.0,-999.0,45,0.00,,,-99.99,,2013-02-13 00:21:00,
2013-02-12 16:32:00,59.0,38.0,-100.00,ESE,114,2.0,-999.0,45,0.00,,,-99.99,,2013-02-13 00:32:00,
2013-02-12 16:41:00,59.0,38.0,-100.00,ESE,114,2.0,-999.0,45,0.00,,,-99.99,,2013-02-13 00:41:00,
2013-02-12 17:01:00,59.0,38.0,-100.00,SW,216,3.0,-999.0,46,0.00,,,-99.99,,2013-02-13 01:01:00,
2013-02-12 17:11:00,59.0,38.0,-100.00,SW,216,3.0,-999.0,46,0.00,,,-99.99,,2013-02-13 01:11:00,
2013-02-12 17:21:00,59.0,38.0,-100.00,SW,216,3.0,-999.0,46,0.00,,,-99.99,,2013-02-13 01:21:00,
2013-02-12 17:31:00,59.0,38.0,-100.00,SW,216,3.0,-999.0,46,0.00,,,-99.99,,2013-02-13 01:31:00,
2013-02-12 17:42:00,59.0,38.0,-100.00,SW,216,3.0,-999.0,46,0.00,,,-99.99,,2013-02-13 01:42:00,
2013-02-12 18:01:00,56.0,39.0,-100.00,SW,234,3.0,-999.0,53,0.00,,,-99.99,,2013-02-13 02:01:00,
2013-02-12 18:11:00,56.0,39.0,-100.00,SW,234,3.0,-999.0,53,0.00,,,-99.99,,2013-02-13 02:11:00,
2013-02-12 18:21:00,56.0,39.0,-100.00,SW,234,3.0,-999.0,53,0.00,,,-99.99,,2013-02-13 02:21:00,
2013-02-12 18:31:00,56.0,39.0,-100.00,SW,234,3.0,-999.0,53,0.00,,,-99.99,,2013-02-13 02:31:00,
2013-02-12 18:41:00,56.0,39.0,-100.00,SW,234,3.0,-999.0,53,0.00,,,-99.99,,2013-02-13 02:41:00,
2013-02-12 19:01:00,52.0,40.0,-100.00,North,-999,0.0,-999.0,63,0.00,,,-99.99,,2013-02-13 03:01:00,
2013-02-12 19:11:00,52.0,40.0,-100.00,North,-999,0.0,-999.0,63,0.00,,,-99.99,,2013-02-13 03:11:00,
2013-02-12 19:21:00,52.0,40.0,-100.00,North,-999,0.0,-999.0,63,0.00,,,-99.99,,2013-02-13 03:21:00,
2013-02-12 19:32:00,52.0,40.0,-100.00,North,-999,0.0,-999.0,63,0.00,,,-99.99,,2013-02-13 03:32:00,
2013-02-12 19:41:00,52.0,40.0,-100.00,North,-999,0.0,-999.0,63,0.00,,,-99.99,,2013-02-13 03:41:00,
2013-02-12 20:01:00,47.0,40.0,-100.00,WNW,296,2.0,-999.0,76,0.00,,,-99.99,,2013-02-13 04:01:00,
2013-02-12 20:11:00,47.0,40.0,-100.00,WNW,296,2.0,-999.0,76,0.00,,,-99.99,,2013-02-13 04:11:00,
2013-02-12 20:21:00,47.0,40.0,-100.00,WNW,296,2.0,-999.0,76,0.00,,,-99.99,,2013-02-13 04:21:00,
2013-02-12 20:31:00,47.0,40.0,-100.00,WNW,296,2.0,-999.0,76,0.00,,,-99.99,,2013-02-13 04:31:00,
2013-02-12 20:41:00,47.0,40.0,-100.00,WNW,296,2.0,-999.0,76,0.00,,,-99.99,,2013-02-13 04:41:00,
2013-02-12 21:01:00,45.0,39.0,-100.00,NNW,331,2.0,-999.0,82,0.00,,,-99.99,,2013-02-13 05:01:00,
2013-02-12 21:11:00,45.0,39.0,-100.00,NNW,331,2.0,-999.0,82,0.00,,,-99.99,,2013-02-13 05:11:00,
2013-02-12 21:22:00,45.0,39.0,-100.00,NNW,331,2.0,-999.0,82,0.00,,,-99.99,,2013-02-13 05:22:00,
2013-02-12 21:31:00,45.0,39.0,-100.00,NNW,331,2.0,-999.0,82,0.00,,,-99.99,,2013-02-13 05:31:00,
2013-02-12 21:41:00,45.0,39.0,-100.00,NNW,331,2.0,-999.0,82,0.00,,,-99.99,,2013-02-13 05:41:00,
2013-02-12 22:02:00,42.0,38.0,-100.00,WNW,301,2.0,-999.0,85,0.00,,,-99.99,,2013-02-13 06:02:00,
2013-02-12 22:11:00,42.0,38.0,-100.00,WNW,301,2.0,-999.0,85,0.00,,,-99.99,,2013-02-13 06:11:00,
2013-02-12 22:21:00,42.0,38.0,-100.00,WNW,301,2.0,-999.0,85,0.00,,,-99.99,,2013-02-13 06:21:00,
2013-02-12 22:31:00,42.0,38.0,-100.00,WNW,301,2.0,-999.0,85,0.00,,,-99.99,,2013-02-13 06:31:00,
2013-02-12 22:41:00,42.0,38.0,-100.00,WNW,301,2.0,-999.0,85,0.00,,,-99.99,,2013-02-13 06:41:00,
2013-02-12 23:02:00,42.0,39.0,-100.00,NNW,334,1.0,-999.0,87,0.00,,,-99.99,,2013-02-13 07:02:00,
2013-02-12 23:11:00,42.0,39.0,-100.00,NNW,334,1.0,-999.0,87,0.00,,,-99.99,,2013-02-13 07:11:00,
2013-02-12 23:21:00,42.0,39.0,-100.00,NNW,334,1.0,-999.0,87,0.00,,,-99.99,,2013-02-13 07:21:00,
2013-02-12 23:31:00,42.0,39.0,-100.00,NNW,334,1.0,-999.0,87,0.00,,,-99.99,,2013-02-13 07:31:00,
2013-02-12 23:41:00,42.0,39.0,-100.00,NNW,334,1.0,-999.0,87,0.00,,,-99.99,,2013-02-13 07:41:00,